Visibility
15.0 15.0 15.0 15.0 14.5 15.0 2.8 8.2 0.7 4.5 7.1 0.5 13.1 15.0 15.0 15.0 15.0 15.0 15.0 15.0 15.0 15.0 15.0 15.0 15.0 15.0 15.0 15.0 15.0 15.0 15.0 15.0 15.0 15.0 15.0 15.0 15.0 15.0 15.0 8.4 15.0 15.0 15.0 11.2
15.0 15.0 15.0 15.0 13.0 10.1 3.5 8.7 0.2 0.1 4.7 2.4 15.0 15.0 15.0 15.0 15.0 15.0 15.0 15.0 15.0 15.0 15.0 15.0 15.0 15.0 15.0 15.0 15.0 15.0 15.0 14.0 0.0 1.2 13.0 15.0 15.0 15.0 15.0 15.0 1.5 5.4 3.8 12.2
15.0 15.0 15.0 15.0 11.9 15.0 1.8 0.2 0.0 0.0 0.0 15.0 15.0 15.0 15.0 15.0 15.0 15.0 15.0 15.0 15.0 15.0 15.0 15.0 15.0 15.0 15.0 15.0 15.0 15.0 15.0 11.3 3.2 7.3 12.4 15.0 7.8 15.0 15.0 15.0 0.0 15.0 5.2 15.0
15.0 15.0 15.0 15.0 7.0 4.0 0.5 0.3 1.0 3.6 0.0 1.0 15.0 15.0 15.0 15.0 15.0 15.0 15.0 15.0 15.0 15.0 0.0 15.0 15.0 15.0 15.0 15.0 15.0 15.0 11.4 0.1 4.2 15.0 15.0 15.0 15.0 3.9 15.0 15.0 11.3 0.2 13.1 15.0
15.0 15.0 15.0 15.0 11.5 3.3 0.1 0.2 2.9 14.5 14.6 15.0 15.0 15.0 15.0 15.0 15.0 15.0 15.0 15.0 15.0 15.0 15.0 15.0 15.0 15.0 15.0 15.0 15.0 15.0 15.0 0.0 0.0 0.0 15.0 15.0 15.0 15.0 9.5 0.5 15.0 15.0 15.0 15.0
15.0 15.0 15.0 15.0 15.0 7.6 1.6 1.8 9.1 15.0 10.8 14.3 10.5 15.0 15.0 15.0 15.0 15.0 15.0 15.0 15.0 15.0 15.0 15.0 14.3 15.0 15.0 15.0 15.0 2.3 0.1 0.0 0.0 0.0 5.3 15.0 13.1 15.0 15.0 15.0 15.0 15.0 12.3 13.5
15.0 15.0 15.0 15.0 15.0 1.4 2.7 5.6 3.3 9.6 0.1 6.0 15.0 15.0 15.0 15.0 15.0 15.0 15.0 15.0 15.0 15.0 15.0 15.0 15.0 15.0 15.0 15.0 15.0 15.0 0.0 0.0 0.0 0.2 5.5 0.1 15.0 15.0 15.0 15.0 15.0 15.0 15.0 15.0
15.0 15.0 15.0 15.0 12.3 6.6 0.6 4.1 3.6 4.0 0.5 15.0 15.0 15.0 15.0 15.0 15.0 15.0 15.0 15.0 15.0 15.0 15.0 2.0 0.4 0.3 0.1 0.1 0.4 0.2 1.2 0.0 0.0 0.2 9.0 14.8 15.0 15.0 15.0 15.0 15.0 15.0 15.0 15.0
15.0 15.0 15.0 15.0 15.0 12.3 0.4 3.0 2.5 6.0 15.0 4.8 15.0 15.0 15.0 15.0 15.0 0.1 0.0 4.9 15.0 15.0 15.0 0.1 0.0 0.0 13.8 7.1 4.9 0.0 0.0 0.0 0.0 0.0 0.2 15.0 15.0 15.0 15.0 15.0 15.0 15.0 15.0 15.0
15.0 15.0 15.0 15.0 15.0 8.7 3.4 0.3 1.5 7.8 8.1 11.2 15.0 15.0 14.8 15.0 15.0 0.0 0.0 0.0 0.7 13.8 0.1 0.0 0.0 0.0 5.5 15.0 15.0 6.2 1.0 0.1 0.1 0.4 0.1 13.0 15.0 15.0 15.0 15.0 15.0 15.0 15.0 15.0
15.0 15.0 15.0 15.0 15.0 15.0 0.7 0.1 0.8 6.4 1.5 0.1 10.1 12.7 15.0 15.0 15.0 9.4 0.0 5.6 0.1 0.0 0.0 0.0 0.0 0.0 8.5 15.0 15.0 15.0 15.0 1.9 2.5 14.4 0.1 0.2 15.0 15.0 15.0 15.0 15.0 15.0 15.0 15.0
15.0 15.0 15.0 15.0 15.0 10.2 2.9 0.1 1.5 2.7 1.3 0.1 6.3 0.4 0.6 0.1 1.7 11.1 1.9 8.1 7.2 6.2 0.0 0.0 0.2 14.1 15.0 15.0 0.7 15.0 15.0 15.0 15.0 15.0 15.0 15.0 15.0 15.0 15.0 15.0 15.0 15.0 15.0 15.0
15.0 15.0 15.0 15.0 15.0 15.0 3.5 3.3 2.6 3.8 0.6 0.2 7.2 0.2 0.2 9.2 4.2 4.4 2.4 0.2 7.5 4.9 6.9 5.6 0.7 0.5 14.6 0.6 6.2 15.0 15.0 15.0 15.0 15.0 15.0 15.0 15.0 15.0 15.0 15.0 15.0 15.0 15.0 15.0
15.0 15.0 14.1 15.0 15.0 5.5 2.3 1.4 2.4 8.1 4.3 0.4 0.0 0.1 0.0 5.3 7.6 6.2 7.3 11.7 9.1 5.3 6.9 2.7 9.4 14.7 15.0 15.0 15.0 15.0 15.0 15.0 15.0 15.0 15.0 15.0 15.0 15.0 15.0 15.0 15.0 15.0 15.0 15.0
13.6 11.0 1.0 0.6 2.9 3.1 4.5 2.4 0.3 6.4 12.5 0.1 0.1 0.0 0.0 4.7 6.4 6.6 6.7 6.2 4.5 6.2 13.5 15.0 15.0 15.0 15.0 15.0 15.0 15.0 15.0 15.0 15.0 15.0 15.0 15.0 15.0 15.0 15.0 15.0 15.0 15.0 15.0 15.0
0.4 1.6 3.3 7.4 6.6 5.7 4.9 0.2 1.9 4.0 4.5 3.3 0.1 0.0 0.0 8.7 7.9 7.5 14.8 14.8 15.0 15.0 15.0 15.0 15.0 15.0 15.0 15.0 15.0 15.0 15.0 15.0 15.0 15.0 15.0 15.0 15.0 15.0 15.0 15.0 15.0 15.0 15.0 15.0
9.6 3.9 5.1 4.8 6.3 4.8 2.4 3.1 2.6 5.0 7.3 1.0 0.1 0.1 0.1 12.1 14.8 15.0 15.0 15.0 15.0 15.0 15.0 15.0 15.0 15.0 15.0 15.0 15.0 15.0 15.0 15.0 15.0 15.0 15.0 15.0 15.0 15.0 15.0 15.0 15.0 15.0 15.0 14.4
3.6 2.5 2.7 2.8 4.0 3.2 1.7 6.8 13.2 6.8 1.0 1.6 0.2 0.1 2.7 15.0 10.6 5.9 15.0 15.0 15.0 15.0 15.0 15.0 15.0 15.0 15.0 15.0 15.0 15.0 15.0 15.0 15.0 15.0 15.0 15.0 15.0 15.0 15.0 15.0 15.0 15.0 15.0 15.0
9.0 3.6 5.0 5.1 3.8 0.4 0.1 9.0 6.7 6.1 3.6 0.4 1.5 4.3 0.3 15.0 9.8 15.0 15.0 15.0 15.0 15.0 15.0 15.0 15.0 15.0 15.0 15.0 15.0 15.0 15.0 15.0 15.0 15.0 15.0 15.0 15.0 15.0 15.0 15.0 13.4 10.6 15.0 15.0
6.3 9.7 1.5 0.0 0.4 9.5 9.6 9.0 7.1 4.2 10.7 15.0 14.3 15.0 2.9 13.4 15.0 15.0 15.0 15.0 15.0 15.0 15.0 15.0 15.0 15.0 15.0 15.0 15.0 15.0 15.0 15.0 15.0 15.0 14.2 15.0 14.0 15.0 15.0 15.0 14.5 14.4 6.3 9.1
4.0 0.0 0.0 2.0 6.8 7.6 9.8 0.0 5.2 11.5 5.2 15.0 15.0 15.0 15.0 15.0 15.0 15.0 15.0 15.0 15.0 15.0 15.0 15.0 15.0 15.0 15.0 15.0 15.0 15.0 15.0 15.0 14.6 15.0 15.0 15.0 4.2 0.2 0.0 0.0 0.0 0.1 1.7 6.3
5.8 9.8 12.3 9.6 9.7 14.0 4.4 6.2 12.8 15.0 15.0 15.0 15.0 15.0 15.0 15.0 15.0 15.0 15.0 15.0 15.0 15.0 15.0 15.0 15.0 15.0 15.0 15.0 15.0 15.0 15.0 15.0 15.0 15.0 15.0 15.0 9.3 0.4 0.3 0.3 0.6 0.5 6.7 1.1
15.0 8.4 9.6 15.0 14.3 0.1 2.3 15.0 15.0 15.0 15.0 15.0 15.0 15.0 15.0 15.0 15.0 15.0 15.0 15.0 15.0 15.0 15.0 15.0 15.0 15.0 15.0 15.0 15.0 15.0 15.0 15.0 15.0 9.7 14.4 15.0 15.0 15.0 15.0 9.9 14.0 15.0 13.7 12.5
5.9 8.1 15.0 15.0 15.0 15.0 15.0 15.0 15.0 15.0 15.0 15.0 15.0 15.0 15.0 15.0 15.0 15.0 15.0 15.0 15.0 15.0 15.0 15.0 14.7 15.0 15.0 7.3 15.0 15.0 15.0 15.0 15.0 10.2 13.5 15.0 15.0 15.0 15.0 15.0 15.0 1.8 15.0 15.0
11.0 15.0 15.0 5.9 12.0 15.0 15.0 15.0 15.0 15.0 15.0 15.0 15.0 15.0 15.0 15.0 15.0 15.0 15.0 15.0 15.0 15.0 15.0 15.0 15.0 15.0 15.0 15.0 15.0 15.0 15.0 15.0 15.0 15.0 15.0 15.0 15.0 15.0 15.0 15.0 15.0 6.7 15.0 15.0
15.0 15.0 8.1 15.0 10.7 5.4 15.0 15.0 15.0 15.0 15.0 15.0 15.0 15.0 15.0 15.0 15.0 15.0 15.0 15.0 15.0 15.0 14.3 12.7 15.0 15.0 15.0 15.0 15.0 15.0 15.0 15.0 15.0 15.0 15.0 15.0 15.0 15.0 15.0 15.0 15.0 15.0 15.0 15.0
14.5 1.5 15.0 13.8 14.2 14.0 15.0 15.0 15.0 15.0 15.0 15.0 15.0 15.0 15.0 15.0 15.0 15.0 15.0 15.0 15.0 15.0 15.0 14.8 15.0 15.0 15.0 15.0 15.0 15.0 15.0 15.0 15.0 15.0 15.0 15.0 15.0 15.0 15.0 15.0 15.0 15.0 15.0 15.0